This is the latest recevied weather packets stored in our database for station/object W1RCY. If no packets are shown the sender has not sent any weather packets the latest 10 day(s).
| Time | Temp. | Humidity | Pressure | Rain* | Wind** | Luminosity | Snow |
|---|---|---|---|---|---|---|---|
| 1778078439 | 18.89° C | 78% | 1006.7 hPa | 0 mm | - | 322 W/m² | - |
| 1778078137 | 18.33° C | 79% | 1006.7 hPa | 0 mm | - | 300 W/m² | - |
| 1778077836 | 18.33° C | 79% | 1006.9 hPa | 0 mm | - | 235 W/m² | - |
| 1778077533 | 17.78° C | 80% | 1006.9 hPa | 0 mm | - | 185 W/m² | - |
| 1778077231 | 17.78° C | 80% | 1006.7 hPa | 0 mm | - | 184 W/m² | - |
| 1778076928 | 17.78° C | 80% | 1006.7 hPa | 0 mm | - | 171 W/m² | - |
| 1778076627 | 17.78° C | 80% | 1006.7 hPa | 0 mm | - | 143 W/m² | - |
| 1778076324 | 17.78° C | 80% | 1007 hPa | 0 mm | - | 160 W/m² | - |
| 1778076021 | 17.78° C | 80% | 1007 hPa | 0 mm | - | 173 W/m² | - |
| 1778075718 | 17.78° C | 81% | 1007.1 hPa | 0 mm | - | 162 W/m² | - |
| 1778075414 | 17.22° C | 81% | 1007.1 hPa | 0 mm | - | 155 W/m² | - |
| 1778075110 | 17.22° C | 81% | 1006.9 hPa | 0 mm | - | 166 W/m² | - |
| 1778074807 | 17.22° C | 81% | 1007.2 hPa | 0 mm | - | 161 W/m² | - |
| 1778074504 | 17.22° C | 82% | 1007.3 hPa | 0 mm | - | 129 W/m² | - |
| 1778074200 | 17.22° C | 82% | 1007.3 hPa | 0 mm | - | 112 W/m² | - |
| 1778073897 | 16.67° C | 82% | 1007.2 hPa | 0 mm | - | 111 W/m² | - |
| 1778073595 | 16.67° C | 82% | 1007.1 hPa | 0 mm | - | 111 W/m² | - |
| 1778073292 | 16.67° C | 83% | 1007.2 hPa | 0 mm | - | 111 W/m² | - |
| 1778072988 | 16.67° C | 83% | 1007.3 hPa | 0 mm | - | 97 W/m² | - |
| 1778072685 | 16.67° C | 83% | 1007.1 hPa | 0 mm | - | 88 W/m² | - |
| 1778072383 | 16.67° C | 83% | 1007.2 hPa | 0 mm | - | 101 W/m² | - |
| 1778072081 | 16.67° C | 83% | 1007.2 hPa | 0 mm | - | 148 W/m² | - |
| 1778071779 | 16.67° C | 83% | 1007.2 hPa | 0 mm | - | 109 W/m² | - |
| 1778071476 | 16.11° C | 83% | 1007.2 hPa | 0 mm | - | 135 W/m² | - |
| 1778071174 | 16.11° C | 83% | 1007.2 hPa | 0 mm | - | 144 W/m² | - |
* Rain latest hour (hover to see other rain measurements)
** Current wind speed in m/s (hover to see current wind gust speed)